Retour au catalogue

ARIANE 5 DEB

ActifGTO
NORAD 43384·DEBRIS·🇫🇷 France

Lancé Jun 12, 2008 depuis Guiana Space Centre

Loading…

TLE

PériméSource: Space-Track

Époque: Sep 8, 2026, 04:07 UTC

1 43384U 08030G   26251.17190239 -.00000101  00000-0  30261-3 0  9999
2 43384   1.8061 257.0261 7188372 126.8765 321.6327  2.31040587148124

Suivez ARIANE 5 DEB en temps réel avec AllMySat

Download on the App Store